TAM3665 SBVT-SBGL

Flight info

Callsign TAM3665
Flight time N/A
Altitude 34000
Route USVAG UN401 MOLSU
Aircraft A20N/M-SDE3FGHIRWY/LB1

Departure

Time 2026-05-05 13:21
Airport Eurico de Aguiar Salles International Airport (SBVT)

Arrival

Time N/A
Airport Rio Galeão – Tom Jobim International Airport (SBGL)
Time Latitude Longitude Altitude Speed Heading
2026-05-05 13:00 -20.26539 -40.28168 10 ft 0 kts 262°
2026-05-05 13:11 -20.26538 -40.28158 10 ft 2 kts 262°
2026-05-05 13:11 -20.26536 -40.28142 10 ft 2 kts 262°
2026-05-05 13:11 -20.26534 -40.28126 10 ft 2 kts 262°
2026-05-05 13:11 -20.26532 -40.28111 10 ft 1 kts 266°
2026-05-05 13:12 -20.26538 -40.28097 10 ft 2 kts 328°
2026-05-05 13:12 -20.26552 -40.28095 10 ft 2 kts 359°
2026-05-05 13:12 -20.26567 -40.28092 11 ft 2 kts 350°
2026-05-05 13:12 -20.26574 -40.28091 11 ft 0 kts 353°
2026-05-05 13:14 -20.26569 -40.28092 11 ft 1 kts 353°
2026-05-05 13:14 -20.26561 -40.28089 11 ft 1 kts 21°
2026-05-05 13:14 -20.26547 -40.28083 10 ft 2 kts 21°
2026-05-05 13:15 -20.26529 -40.28075 10 ft 3 kts 22°
2026-05-05 13:15 -20.26504 -40.28064 10 ft 4 kts 23°
2026-05-05 13:15 -20.26466 -40.28050 10 ft 7 kts 17°
2026-05-05 13:15 -20.26382 -40.28056 9 ft 14 kts 352°
2026-05-05 13:16 -20.26286 -40.28072 8 ft 13 kts 352°
2026-05-05 13:16 -20.26191 -40.28085 7 ft 13 kts 353°
2026-05-05 13:16 -20.26103 -40.28100 7 ft 12 kts 349°
2026-05-05 13:16 -20.26019 -40.28111 7 ft 11 kts 353°
2026-05-05 13:17 -20.25946 -40.28121 8 ft 10 kts 352°
2026-05-05 13:17 -20.25878 -40.28131 9 ft 9 kts 352°
2026-05-05 13:17 -20.25813 -40.28141 11 ft 9 kts 352°
2026-05-05 13:17 -20.25750 -40.28150 12 ft 8 kts 353°
2026-05-05 13:18 -20.25675 -40.28160 13 ft 11 kts 353°
2026-05-05 13:18 -20.25596 -40.28171 15 ft 11 kts 349°
2026-05-05 13:18 -20.25516 -40.28187 15 ft 12 kts 350°
2026-05-05 13:18 -20.25431 -40.28201 15 ft 12 kts 357°
2026-05-05 13:19 -20.25345 -40.28175 14 ft 13 kts 28°
2026-05-05 13:19 -20.25264 -40.28125 15 ft 13 kts 30°
2026-05-05 13:19 -20.25177 -40.28072 14 ft 13 kts 19°
2026-05-05 13:19 -20.25076 -40.28077 13 ft 15 kts 351°
2026-05-05 13:20 -20.24954 -40.28096 9 ft 19 kts 355°
2026-05-05 13:20 -20.24816 -40.28090 6 ft 19 kts
2026-05-05 13:20 -20.24791 -40.28120 7 ft 1 kts 198°
2026-05-05 13:20 -20.24797 -40.28119 7 ft 1 kts 174°
2026-05-05 13:21 -20.25050 -40.28083 12 ft 75 kts 172°
2026-05-05 13:21 -20.25807 -40.27970 13 ft 142 kts 172°
2026-05-05 13:21 -20.26914 -40.27815 317 ft 169 kts 173°
2026-05-05 13:21 -20.28042 -40.27643 1101 ft 164 kts 170°
2026-05-05 13:22 -20.29157 -40.27464 1838 ft 165 kts 172°
2026-05-05 13:22 -20.30325 -40.27293 2328 ft 179 kts 172°
2026-05-05 13:22 -20.31595 -40.27108 2849 ft 192 kts 172°
2026-05-05 13:22 -20.32957 -40.26908 3317 ft 209 kts 172°
2026-05-05 13:23 -20.34483 -40.26682 3712 ft 234 kts 172°
2026-05-05 13:23 -20.36168 -40.26680 4226 ft 254 kts 194°
2026-05-05 13:23 -20.37724 -40.27659 4852 ft 271 kts 227°
2026-05-05 13:23 -20.38581 -40.29440 5732 ft 278 kts 258°
2026-05-05 13:24 -20.38777 -40.31473 6679 ft 280 kts 264°
2026-05-05 13:24 -20.39004 -40.33536 7534 ft 283 kts 251°
2026-05-05 13:24 -20.39869 -40.35383 8402 ft 284 kts 234°
2026-05-05 13:24 -20.41021 -40.37082 9264 ft 287 kts 231°
2026-05-05 13:25 -20.42214 -40.38789 10086 ft 291 kts 232°
2026-05-05 13:25 -20.43404 -40.40544 10833 ft 298 kts 232°
2026-05-05 13:25 -20.44614 -40.42382 11306 ft 313 kts 233°
2026-05-05 13:25 -20.45852 -40.44305 11992 ft 320 kts 234°
2026-05-05 13:26 -20.47118 -40.46300 12799 ft 323 kts 234°
2026-05-05 13:26 -20.48367 -40.48281 13559 ft 327 kts 234°
2026-05-05 13:26 -20.49626 -40.50286 14292 ft 331 kts 234°
2026-05-05 13:26 -20.50913 -40.52340 15020 ft 334 kts 234°
2026-05-05 13:27 -20.52196 -40.54391 15724 ft 338 kts 234°
2026-05-05 13:27 -20.53506 -40.56487 16418 ft 342 kts 234°
2026-05-05 13:27 -20.54821 -40.58593 17092 ft 345 kts 234°
2026-05-05 13:27 -20.56161 -40.60727 17754 ft 349 kts 234°
2026-05-05 13:28 -20.57523 -40.62889 18402 ft 353 kts 234°
2026-05-05 13:28 -20.58898 -40.65078 19034 ft 356 kts 234°
2026-05-05 13:28 -20.60266 -40.67264 19642 ft 360 kts 234°
2026-05-05 13:28 -20.61659 -40.69496 20246 ft 363 kts 234°
2026-05-05 13:29 -20.63045 -40.71723 20837 ft 366 kts 235°
2026-05-05 13:29 -20.64466 -40.74006 21428 ft 370 kts 235°
2026-05-05 13:29 -20.65884 -40.76286 22003 ft 373 kts 235°
2026-05-05 13:29 -20.67331 -40.78612 22575 ft 376 kts 235°
2026-05-05 13:30 -20.68789 -40.80897 23126 ft 379 kts 232°
2026-05-05 13:30 -20.70406 -40.83121 23684 ft 382 kts 228°
2026-05-05 13:30 -20.72164 -40.85269 24250 ft 384 kts 227°
2026-05-05 13:30 -20.73935 -40.87380 24799 ft 386 kts 226°
2026-05-05 13:31 -20.75738 -40.89525 25333 ft 388 kts 226°
2026-05-05 13:31 -20.77527 -40.91656 25848 ft 391 kts 227°
2026-05-05 13:31 -20.79339 -40.93820 26356 ft 393 kts 227°
2026-05-05 13:31 -20.81177 -40.96017 26851 ft 395 kts 227°
2026-05-05 13:32 -20.82995 -40.98193 27323 ft 397 kts 227°
2026-05-05 13:32 -20.84847 -41.00409 27783 ft 399 kts 227°
2026-05-05 13:32 -20.86697 -41.02623 28215 ft 402 kts 227°
2026-05-05 13:32 -20.88558 -41.04849 28622 ft 404 kts 227°
2026-05-05 13:33 -20.90435 -41.07097 29011 ft 407 kts 227°
2026-05-05 13:33 -20.92314 -41.09349 29382 ft 409 kts 227°
2026-05-05 13:33 -20.94193 -41.11608 29730 ft 411 kts 228°
2026-05-05 13:33 -20.96088 -41.13896 30073 ft 414 kts 228°
2026-05-05 13:34 -20.98005 -41.16210 30431 ft 415 kts 228°
2026-05-05 13:34 -20.99900 -41.18492 30872 ft 414 kts 228°
2026-05-05 13:34 -21.01807 -41.20787 31346 ft 411 kts 228°
2026-05-05 13:34 -21.03706 -41.23071 31794 ft 409 kts 228°
2026-05-05 13:35 -21.05575 -41.25317 32216 ft 407 kts 229°
2026-05-05 13:35 -21.07459 -41.27583 32604 ft 406 kts 229°
2026-05-05 13:35 -21.09319 -41.29818 32910 ft 407 kts 230°
2026-05-05 13:35 -21.11207 -41.32088 33127 ft 410 kts 230°
2026-05-05 13:36 -21.13104 -41.34360 33411 ft 410 kts 230°
2026-05-05 13:36 -21.14957 -41.36608 34013 ft 401 kts 229°
2026-05-05 13:36 -21.16812 -41.38851 34175 ft 406 kts 230°
2026-05-05 13:36 -21.18689 -41.41120 34207 ft 413 kts 230°
2026-05-05 13:37 -21.22524 -41.45753 34220 ft 416 kts 230°
2026-05-05 13:37 -21.26345 -41.50365 34223 ft 416 kts 230°
2026-05-05 13:38 -21.30196 -41.55019 34223 ft 416 kts 230°
2026-05-05 13:38 -21.34020 -41.59658 34223 ft 416 kts 230°
2026-05-05 13:39 -21.37842 -41.64294 34223 ft 416 kts 230°
2026-05-05 13:39 -21.41656 -41.68923 34223 ft 416 kts 230°
2026-05-05 13:40 -21.45484 -41.73569 34223 ft 416 kts 230°
2026-05-05 13:40 -21.49313 -41.78221 34223 ft 416 kts 230°
2026-05-05 13:41 -21.53138 -41.82872 34223 ft 416 kts 230°
2026-05-05 13:41 -21.56977 -41.87532 34223 ft 416 kts 230°
2026-05-05 13:42 -21.60796 -41.92152 34223 ft 416 kts 230°
2026-05-05 13:42 -21.64648 -41.96836 34223 ft 416 kts 230°
2026-05-05 13:43 -21.68448 -42.01471 34223 ft 416 kts 230°
2026-05-05 13:43 -21.72257 -42.06125 34223 ft 416 kts 230°
2026-05-05 13:44 -21.76085 -42.10807 34216 ft 416 kts 230°
2026-05-05 13:44 -21.79822 -42.15557 34200 ft 416 kts 237°
2026-05-05 13:45 -21.82535 -42.21019 34202 ft 414 kts 246°
2026-05-05 13:45 -21.84938 -42.26649 34199 ft 414 kts 246°
2026-05-05 13:46 -21.86139 -42.29451 34082 ft 412 kts 246°
2026-05-05 13:46 -21.87334 -42.32230 33361 ft 418 kts 246°
2026-05-05 13:46 -21.88568 -42.35095 32351 ft 428 kts 246°
2026-05-05 13:46 -21.89827 -42.38009 31513 ft 433 kts 246°
2026-05-05 13:47 -21.91100 -42.40955 30762 ft 435 kts 246°
2026-05-05 13:47 -21.92368 -42.43889 30010 ft 437 kts 246°
2026-05-05 13:47 -21.93653 -42.46862 29386 ft 435 kts 246°
2026-05-05 13:47 -21.94904 -42.49758 28879 ft 430 kts 246°
2026-05-05 13:48 -21.96160 -42.52667 28340 ft 427 kts 246°
2026-05-05 13:48 -21.97405 -42.55556 27812 ft 423 kts 247°
2026-05-05 13:48 -21.98615 -42.58397 27629 ft 410 kts 248°
2026-05-05 13:48 -21.99800 -42.61137 27449 ft 399 kts 246°
2026-05-05 13:49 -22.00975 -42.63848 26710 ft 404 kts 246°
2026-05-05 13:49 -22.02167 -42.66614 25816 ft 411 kts 246°
2026-05-05 13:49 -22.03363 -42.69392 25247 ft 409 kts 246°
2026-05-05 13:49 -22.04552 -42.72156 24759 ft 406 kts 246°
2026-05-05 13:50 -22.05732 -42.74901 24296 ft 402 kts 246°
2026-05-05 13:50 -22.06901 -42.77621 23845 ft 398 kts 246°
2026-05-05 13:50 -22.08058 -42.80314 23402 ft 395 kts 246°
2026-05-05 13:50 -22.09205 -42.82986 22966 ft 391 kts 246°
2026-05-05 13:51 -22.10338 -42.85627 22534 ft 387 kts 246°
2026-05-05 13:51 -22.11463 -42.88253 22109 ft 384 kts 246°
2026-05-05 13:51 -22.12565 -42.90825 21691 ft 381 kts 246°
2026-05-05 13:51 -22.13680 -42.93428 21271 ft 377 kts 246°
2026-05-05 13:52 -22.14770 -42.95974 20860 ft 374 kts 246°
2026-05-05 13:52 -22.15857 -42.98514 20451 ft 371 kts 246°
2026-05-05 13:52 -22.16929 -43.01018 20047 ft 369 kts 246°
2026-05-05 13:52 -22.17998 -43.03517 19643 ft 366 kts 246°
2026-05-05 13:53 -22.19062 -43.06007 19245 ft 363 kts 246°
2026-05-05 13:53 -22.20104 -43.08445 18856 ft 360 kts 246°
2026-05-05 13:53 -22.21148 -43.10894 18472 ft 357 kts 246°
2026-05-05 13:53 -22.22170 -43.13303 18098 ft 354 kts 246°
2026-05-05 13:54 -22.23196 -43.15725 17727 ft 350 kts 246°
2026-05-05 13:54 -22.24199 -43.18089 17369 ft 347 kts 246°
2026-05-05 13:54 -22.25200 -43.20445 17016 ft 343 kts 246°
2026-05-05 13:54 -22.26185 -43.22760 16660 ft 340 kts 246°
2026-05-05 13:55 -22.27171 -43.25076 16287 ft 338 kts 246°
2026-05-05 13:55 -22.28142 -43.27358 15909 ft 336 kts 246°
2026-05-05 13:55 -22.29112 -43.29638 15528 ft 333 kts 246°
2026-05-05 13:55 -22.30070 -43.31890 15150 ft 331 kts 246°
2026-05-05 13:56 -22.31031 -43.34152 14768 ft 329 kts 246°
2026-05-05 13:56 -22.31979 -43.36381 14392 ft 327 kts 246°
2026-05-05 13:56 -22.32924 -43.38604 14015 ft 325 kts 246°
2026-05-05 13:56 -22.33859 -43.40808 13643 ft 322 kts 246°
2026-05-05 13:57 -22.34788 -43.42999 13300 ft 319 kts 246°
2026-05-05 13:57 -22.35683 -43.45110 13213 ft 305 kts 246°
2026-05-05 13:57 -22.36598 -43.47144 13077 ft 303 kts 238°
2026-05-05 13:57 -22.38048 -43.48786 12718 ft 301 kts 214°
2026-05-05 13:58 -22.39921 -43.49756 12361 ft 299 kts 202°
2026-05-05 13:58 -22.41850 -43.50539 11962 ft 298 kts 201°
2026-05-05 13:58 -22.43777 -43.51308 11567 ft 297 kts 201°
2026-05-05 13:58 -22.45714 -43.52095 11178 ft 295 kts 202°
2026-05-05 13:59 -22.49462 -43.53649 10579 ft 287 kts 202°
2026-05-05 13:59 -22.51325 -43.54428 10281 ft 282 kts 202°
2026-05-05 14:00 -22.54934 -43.55879 9670 ft 276 kts 193°
2026-05-05 14:00 -22.56222 -43.55982 9424 ft 273 kts 174°
2026-05-05 14:00 -22.58555 -43.55095 8987 ft 268 kts 154°
2026-05-05 14:00 -22.60212 -43.54198 8615 ft 267 kts 154°
2026-05-05 14:01 -22.61862 -43.53303 8200 ft 261 kts 154°
2026-05-05 14:01 -22.63465 -43.52435 7798 ft 260 kts 150°
2026-05-05 14:01 -22.64848 -43.51182 7385 ft 259 kts 129°
2026-05-05 14:01 -22.65914 -43.49641 6937 ft 257 kts 124°
2026-05-05 14:02 -22.66923 -43.48070 6439 ft 252 kts 124°
2026-05-05 14:02 -22.67900 -43.46552 5881 ft 242 kts 124°
2026-05-05 14:02 -22.68864 -43.45073 5340 ft 235 kts 124°
2026-05-05 14:02 -22.69792 -43.43663 4823 ft 228 kts 125°
2026-05-05 14:03 -22.70691 -43.42303 4321 ft 220 kts 125°
2026-05-05 14:03 -22.71565 -43.40983 3835 ft 213 kts 125°
2026-05-05 14:03 -22.72418 -43.39697 3408 ft 208 kts 125°
2026-05-05 14:03 -22.73248 -43.38446 3133 ft 200 kts 125°
2026-05-05 14:04 -22.74047 -43.37239 2756 ft 195 kts 125°
2026-05-05 14:04 -22.74829 -43.36060 2391 ft 191 kts 124°
2026-05-05 14:04 -22.75596 -43.34903 1985 ft 190 kts 124°
2026-05-05 14:04 -22.76363 -43.33754 1645 ft 184 kts 125°
2026-05-05 14:05 -22.77082 -43.32684 1466 ft 172 kts 124°
2026-05-05 14:05 -22.77755 -43.31659 1235 ft 162 kts 124°
2026-05-05 14:05 -22.78406 -43.30662 1007 ft 160 kts 124°
2026-05-05 14:05 -22.79041 -43.29697 786 ft 154 kts 124°